CAPE
0 0 0 0 0 1 0 0 3 1 0 0 1 0 0 0 0 0 0 0 0 0 0 0 0 0 0 0 0 0 0 0 0 0 0 0 0 0 0 0 0 0 0 0
0 1 0 0 2 0 0 1 0 1 0 0 2 0 0 0 0 0 0 0 0 0 0 0 0 0 0 0 0 0 0 0 0 0 0 0 0 0 0 0 0 0 0 0
0 0 0 0 1 0 0 0 1 2 1 0 0 0 0 0 0 0 0 0 0 0 0 0 0 0 0 0 0 0 0 0 0 0 0 0 0 0 0 0 0 0 0 0
8 1 1 1 1 0 0 0 3 0 1 1 0 0 0 0 0 0 0 0 0 0 0 0 0 0 0 0 0 0 0 0 0 0 0 0 0 0 0 0 0 0 0 0
7 1 1 1 1 0 0 0 0 0 0 0 0 0 0 0 0 0 0 0 0 0 0 0 0 0 0 0 0 0 0 0 0 0 0 0 0 0 0 0 0 0 0 0
2 2 0 0 1 0 0 0 0 0 0 0 0 0 0 0 0 0 0 0 0 0 0 0 0 0 0 0 0 0 0 2 0 0 0 0 0 0 0 0 0 0 0 0
2 3 7 0 0 0 0 0 0 0 0 0 0 0 0 0 0 0 0 0 0 0 0 0 0 0 0 0 0 0 0 0 0 0 0 0 0 0 0 0 0 0 0 0
3 1 1 0 0 0 0 0 0 0 0 0 0 0 0 0 0 0 0 0 0 0 0 0 1 0 0 0 0 6 4 0 0 0 0 0 0 0 0 0 0 0 0 0
1 1 0 0 0 0 0 0 0 0 0 0 0 5 0 0 0 0 0 0 0 0 0 0 0 0 0 0 3 0 0 0 0 0 0 0 0 0 0 0 0 0 0 0
0 0 0 0 0 0 0 0 0 0 0 0 0 0 1 0 0 0 0 0 0 0 0 1 0 0 1 0 0 0 0 0 0 0 3 0 0 0 0 0 0 0 0 0
7 0 0 0 0 0 0 0 0 0 0 0 0 0 0 0 0 0 0 0 0 0 2 3 0 0 0 0 0 0 0 0 2 1 3 1 0 0 0 0 0 0 0 0
25 0 1 0 0 0 0 0 0 0 0 0 0 0 0 0 0 0 0 0 0 0 0 0 0 0 0 0 0 0 0 0 0 0 0 0 0 0 0 0 0 0 0 0
6 1 1 0 0 0 0 0 0 0 0 0 0 0 0 0 0 0 0 0 0 0 0 0 0 3 0 0 0 0 0 0 0 0 0 0 0 0 0 0 0 0 0 0
2 7 1 0 0 0 0 0 0 0 0 0 0 0 0 0 0 0 0 0 0 0 0 2 0 0 0 0 0 0 0 0 0 0 0 0 0 0 0 0 0 0 0 0
1 2 1 0 0 0 0 0 0 0 0 0 0 0 0 0 0 0 0 0 0 0 3 0 1 0 0 0 0 0 0 0 0 0 0 0 0 0 0 0 0 0 0 0
5 1 1 0 0 0 0 0 0 0 0 0 0 0 0 0 0 0 0 0 0 0 0 0 0 0 0 1 0 0 0 0 0 0 0 0 0 0 0 0 0 0 0 0
2 1 0 0 0 0 0 0 0 0 0 0 0 0 0 0 0 0 0 0 0 0 0 0 0 0 0 0 0 0 0 0 0 0 0 0 0 0 0 0 0 0 0 0
1 1 1 1 0 0 0 0 0 0 0 0 0 0 0 0 0 0 0 0 0 0 0 0 0 0 0 0 0 0 0 0 0 0 0 0 0 0 0 0 0 0 0 0
1 1 1 0 0 1 0 0 0 0 0 0 0 0 0 0 0 0 0 0 0 0 0 0 0 0 0 0 0 0 0 0 0 0 0 0 0 0 0 0 0 0 0 0
0 0 0 0 2 1 1 0 0 0 0 0 0 0 0 0 0 0 1 1 0 0 0 0 0 0 0 0 0 0 0 0 0 0 0 0 0 0 0 0 0 0 0 0
0 0 0 3 2 0 0 0 0 0 0 0 0 0 0 0 0 0 0 0 0 0 0 0 0 0 0 0 0 0 0 0 0 0 0 0 0 0 0 0 0 0 0 0
0 0 0 1 0 0 0 0 0 0 0 0 0 0 0 0 0 0 1 0 1 0 0 0 0 0 0 0 0 0 0 0 0 0 0 0 0 0 0 0 0 0 0 0
0 0 0 0 0 0 0 0 0 0 0 1 0 0 0 0 0 0 0 0 0 0 0 0 0 0 0 0 0 0 0 0 0 0 0 0 0 0 0 0 0 0 0 0
0 0 0 0 0 0 0 0 0 0 0 0 0 0 0 0 0 0 0 0 0 0 0 0 0 0 0 0 0 0 0 0 0 0 0 0 0 0 0 0 0 0 0 0
0 0 0 0 0 0 0 0 0 0 0 0 0 0 0 0 0 0 0 0 0 0 0 0 0 0 0 0 0 0 0 0 0 0 0 0 0 0 0 0 0 0 0 0
0 0 0 0 0 0 0 0 0 0 0 0 0 0 0 0 0 0 0 0 0 0 0 0 0 0 0 0 0 0 0 0 0 0 0 0 0 0 0 0 0 0 0 0
0 0 0 0 0 0 0 0 0 0 0 0 0 0 0 0 0 0 0 0 0 0 0 0 0 0 0 0 0 0 0 0 0 0 0 0 0 0 0 0 0 0 0 0
CIN
-0 -0 -0 -0 -0 -0 -0 -0 -2 -0 -0 -0 -0 -0 -0 -0 -0 -0 -0 -0 -0 -0 -0 -0 -0 -0 -0 -0 -0 -0 -0 -0 -0 -0 -0 -0 -0 -0 -0 -0 -0 -0 -0 -0
-0 -0 -0 -0 -0 -0 -0 -21 -0 -0 -0 -0 -0 -0 -0 -0 -0 -0 -0 -0 -0 -0 -0 -0 -0 -0 -0 -0 -0 -0 -0 -0 -0 -0 -0 -0 -0 -0 -0 -0 -0 -0 -0 -0
-0 -0 -0 -0 -0 -0 -0 -0 -0 -0 -0 -0 -0 -1 -0 -0 -0 -0 -0 -0 -0 -0 -0 -0 -0 -0 -0 -0 -0 -0 -0 -0 -0 -0 -0 -0 -0 -0 -0 -0 -0 -0 -0 -0
-68 -0 -0 -0 -0 -0 -0 -0 -4 -0 -0 -0 -0 -0 -0 -0 -0 -0 -0 -0 -0 -0 -0 -0 -0 -0 -0 -0 -0 -0 -0 -0 -0 -0 -0 -0 -0 -0 -0 -0 -0 -0 -0 -0
-59 -28 -81 -0 -0 -0 -0 -0 -0 -0 -0 -0 -0 -0 -0 -0 -0 -0 -0 -0 -0 -0 -0 -0 -0 -0 -0 -0 -0 -0 -0 -0 -0 -0 -0 -0 -0 -0 -0 -0 -0 -0 -0 -0
-36 -26 -0 -0 -0 -0 -0 -0 -0 -0 -0 -0 -0 -0 -0 -0 -0 -0 -0 -0 -0 -0 -0 -0 -0 -0 -0 -0 -0 -0 -30 -24 -0 -0 -0 -0 -0 -0 -0 -0 -0 -0 -0 -0
-25 -72 -69 -0 -0 -0 -0 -0 -0 -0 -0 -0 -0 -0 -0 -0 -0 -0 -0 -0 -0 -0 -0 -0 -0 -0 -0 -0 -4 -0 -17 -8 -0 -0 -0 -0 -0 -0 -0 -0 -0 -0 -0 -0
-20 -0 -26 -0 -0 -0 -0 -0 -0 -0 -0 -0 -0 -0 -0 -0 -0 -0 -0 -0 -0 -0 -15 -6 -5 -0 -0 -2 -0 -39 -43 -2 -1 -0 -0 -0 -0 -0 -0 -0 -0 -0 -0 -0
-21 -0 -0 -0 -0 -0 -0 -0 -0 -0 -0 -0 -0 -4 -0 -0 -0 -0 -0 -0 -0 -0 -0 -11 -3 -0 -0 -8 -23 -0 -0 -0 -2 -0 -0 -0 -0 -0 -0 -0 -0 -0 -0 -0
-0 -0 -0 -0 -0 -0 -0 -0 -0 -0 -0 -0 -0 -4 -6 -0 -0 -0 -0 -0 -0 -0 -0 -0 -0 -0 -7 -2 -0 -0 -0 -0 -2 -3 -12 -0 -0 -0 -0 -0 -0 -0 -0 -0
-24 -8 -0 -0 -0 -0 -0 -0 -0 -1 -0 -0 -0 -0 -0 -0 -0 -0 -0 -0 -0 -0 -6 -2 -0 -0 -0 -0 -0 -0 -2 -0 -7 -16 -5 -5 -0 -0 -0 -0 -0 -0 -0 -0
-8 -0 -0 -0 -0 -0 -0 -0 -0 -0 -0 -0 -0 -0 -0 -0 -0 -0 -0 -0 -0 -0 -0 -1 -0 -0 -0 -0 -0 -0 -1 -0 -0 -0 -0 -0 -0 -0 -0 -0 -0 -0 -0 -0
-11 -1 -0 -0 -0 -0 -0 -0 -0 -0 -0 -0 -0 -0 -0 -0 -0 -0 -0 -0 -0 -0 -0 -0 -6 -7 -0 -0 -0 -0 -0 -0 -0 -0 -0 -0 -0 -0 -0 -0 -0 -0 -0 -0
-12 -27 -0 -0 -0 -0 -0 -0 -0 -0 -0 -0 -0 -0 -0 -0 -0 -0 -0 -0 -0 -0 -0 -70 -0 -0 -0 -0 -0 -0 -0 -0 -0 -0 -0 -0 -0 -0 -0 -0 -0 -0 -0 -0
-0 -28 -0 -0 -0 -0 -0 -0 -0 -0 -0 -0 -0 -0 -0 -0 -0 -0 -0 -0 -0 -0 -32 -12 -4 -0 -0 -0 -0 -0 -0 -0 -0 -0 -0 -0 -0 -0 -0 -0 -0 -0 -0 -0
-7 -0 -0 -0 -0 -0 -0 -0 -0 -0 -0 -0 -0 -0 -0 -0 -0 -0 -0 -0 -0 -0 -0 -0 -0 -0 -0 -5 -3 -0 -0 -0 -0 -0 -0 -0 -0 -0 -0 -0 -0 -0 -0 -0
-16 -0 -0 -0 -0 -0 -0 -0 -0 -0 -0 -0 -0 -0 -0 -0 -0 -0 -0 -0 -0 -0 -0 -0 -0 -0 -0 -0 -0 -0 -0 -0 -0 -0 -0 -0 -0 -0 -0 -0 -0 -0 -0 -0
-0 -0 -0 -0 -0 -0 -0 -0 -0 -0 -0 -0 -0 -0 -0 -0 -0 -0 -0 -0 -0 -4 -0 -0 -0 -0 -0 -0 -0 -0 -0 -0 -0 -0 -0 -0 -0 -0 -0 -0 -0 -0 -0 -0
-0 -0 -0 -1 -0 -0 -0 -0 -0 -0 -0 -0 -0 -0 -0 -0 -0 -0 -0 -0 -0 -0 -3 -0 -0 -0 -0 -0 -0 -0 -0 -0 -0 -0 -0 -0 -0 -0 -0 -0 -0 -0 -0 -0
-0 -0 -0 -0 -0 -3 -8 -0 -0 -0 -0 -0 -0 -0 -0 -0 -0 -1 -7 -11 -0 -0 -0 -0 -0 -0 -0 -0 -0 -0 -0 -0 -0 -0 -0 -0 -0 -0 -0 -0 -0 -0 -0 -0
-0 -0 -0 -0 -1 -0 -0 -0 -0 -0 -0 -0 -0 -0 -0 -0 -0 -0 -0 -6 -0 -0 -0 -0 -0 -0 -0 -0 -0 -0 -0 -0 -0 -0 -0 -0 -0 -0 -0 -0 -0 -0 -0 -0
-0 -0 -1 -0 -0 -0 -0 -0 -0 -0 -0 -0 -0 -0 -0 -0 -0 -0 -0 -0 -0 -0 -0 -0 -0 -0 -0 -0 -0 -0 -0 -0 -0 -0 -0 -0 -0 -0 -0 -0 -0 -0 -0 -0
-0 -0 -0 -0 -0 -0 -0 -0 -0 -0 -0 -0 -0 -0 -0 -0 -0 -0 -0 -0 -0 -0 -0 -0 -0 -0 -0 -0 -0 -0 -0 -0 -0 -0 -0 -0 -0 -0 -0 -0 -0 -0 -0 -0
-0 -0 -0 -0 -0 -0 -0 -0 -0 -0 -0 -0 -0 -0 -0 -0 -0 -0 -0 -0 -0 -0 -0 -0 -0 -0 -0 -0 -0 -0 -0 -0 -0 -0 -0 -0 -0 -0 -0 -0 -0 -0 -0 -0
-0 -0 -0 -0 -0 -0 -0 -0 -0 -0 -0 -0 -0 -0 -0 -0 -0 -0 -0 -0 -0 -0 -0 -0 -0 -0 -0 -0 -0 -0 -0 -0 -0 -0 -0 -0 -0 -0 -0 -0 -0 -0 -0 -0
-0 -0 -0 -0 -0 -0 -0 -0 -0 -0 -0 -0 -0 -0 -0 -0 -0 -0 -0 -0 -0 -0 -0 -0 -0 -0 -0 -0 -0 -0 -0 -0 -0 -0 -0 -0 -0 -0 -0 -0 -0 -0 -0 -0
-0 -0 -0 -0 -0 -0 -0 -0 -0 -0 -0 -0 -0 -0 -0 -0 -0 -0 -0 -0 -0 -0 -0 -0 -0 -0 -0 -0 -0 -0 -0 -0 -0 -0 -0 -0 -0 -0 -0 -0 -0 -0 -0 -0
Wind_Speed
45 43 40 36 31 29 29 30 30 21 17 25 27 30 24 23 21 21 25 24 23 21 18 17 17 17 18 19 18 16 16 14 15 14 14 13 13 14 12 14 17 18 19 17
44 42 38 35 32 34 30 31 27 24 27 34 35 30 28 24 21 23 23 25 23 22 21 21 20 19 18 18 18 16 16 18 18 19 18 16 16 15 14 13 16 14 17 21
43 41 38 35 34 34 31 30 33 29 31 32 33 31 30 29 24 25 27 26 23 22 24 22 22 22 20 19 18 18 18 18 18 18 21 18 18 17 15 14 15 17 14 20
42 40 39 37 35 33 32 33 33 29 35 33 30 29 28 31 28 23 21 26 23 22 25 24 26 24 25 21 20 21 21 22 21 20 20 20 21 21 18 17 17 17 19 18
42 41 40 40 40 32 31 33 35 30 29 29 31 32 36 30 25 24 27 26 23 23 25 24 24 23 23 26 22 22 21 24 23 24 25 25 26 25 22 20 18 20 20 18
43 42 40 41 41 35 34 29 26 30 33 31 35 41 37 33 27 30 28 26 24 24 24 21 21 22 20 22 22 23 23 21 24 26 25 28 33 24 21 22 20 21 20 14
44 42 41 40 40 38 33 33 28 32 39 35 39 35 34 34 29 27 26 25 25 23 16 15 19 23 25 22 20 19 22 21 21 27 25 30 24 20 20 21 20 17 17 15
45 41 40 41 39 38 32 31 33 32 39 38 37 35 33 30 28 30 31 23 24 20 19 22 25 26 26 23 22 19 17 18 22 25 25 31 30 24 22 27 30 22 16 15
44 40 39 39 38 36 30 30 31 34 37 40 32 34 32 32 30 28 27 22 19 20 25 25 28 28 25 25 22 20 18 19 22 23 27 30 21 16 20 23 36 25 18 17
41 41 39 38 35 33 29 30 27 31 35 33 31 36 35 28 29 30 28 24 25 23 27 29 31 31 25 28 25 23 22 25 25 25 28 29 22 21 23 29 27 26 21 16
47 42 40 37 35 32 28 27 26 29 30 29 30 28 29 28 28 31 27 27 31 27 30 31 29 29 28 29 27 25 24 24 25 26 30 34 20 21 19 18 21 24 22 17
43 42 39 37 33 32 26 26 20 17 24 26 22 21 20 22 25 27 26 28 25 26 28 30 27 31 29 30 36 26 30 27 27 24 26 24 19 21 20 21 24 26 24 19
40 42 38 36 34 30 26 24 21 18 22 23 22 24 20 17 17 18 26 27 24 25 24 25 28 32 28 35 37 34 32 27 34 34 33 33 30 26 25 24 27 28 25 20
45 42 39 36 33 27 22 21 20 18 20 25 27 19 20 18 17 16 16 17 18 20 22 26 30 35 29 36 35 35 32 27 31 35 33 33 32 31 30 28 27 27 25 20
45 44 38 37 33 26 18 15 17 15 20 28 25 21 19 19 17 16 15 17 20 23 26 28 32 31 31 33 34 40 31 34 36 41 32 32 33 29 28 29 28 27 24 21
44 42 41 38 33 28 22 20 21 17 13 18 28 24 22 20 19 20 20 19 21 23 27 29 31 29 31 38 45 40 34 32 32 40 35 32 31 28 26 27 25 24 22 22
46 39 36 35 33 29 26 24 17 13 10 16 20 21 21 20 19 20 21 21 23 23 27 30 31 32 31 37 49 37 31 31 34 33 31 33 29 30 28 26 25 24 24 25
41 37 35 33 31 25 23 17 12 14 13 15 21 22 19 18 22 22 19 22 22 24 27 28 33 30 31 42 41 38 38 37 34 34 33 34 32 31 30 28 28 29 29 30
39 37 32 26 27 26 22 14 10 9 15 15 16 16 19 13 17 18 19 20 26 24 28 30 28 35 41 41 42 41 37 36 37 37 38 36 36 35 32 32 31 30 29 30
39 34 30 30 30 25 19 18 18 16 18 15 16 12 15 11 14 17 17 20 25 30 30 25 33 41 42 41 42 44 43 41 39 41 43 41 41 37 35 31 31 32 34 34
33 28 27 25 21 21 20 19 19 18 18 16 13 12 11 12 13 14 15 18 20 26 26 26 32 40 38 34 35 35 37 38 41 44 44 39 38 35 36 36 36 39 38 36
26 23 22 21 21 20 21 23 18 18 18 13 14 15 11 10 11 14 14 18 19 25 18 23 32 32 23 28 30 28 28 31 36 36 38 38 38 37 38 41 38 35 33 33
25 20 21 23 20 23 25 29 23 21 14 15 13 12 11 11 12 13 14 19 23 17 22 28 27 29 26 29 26 27 28 27 27 29 28 29 31 30 28 29 30 31 32 32
21 21 25 25 25 27 25 24 21 17 13 8 9 8 12 11 14 15 18 17 17 24 28 28 27 24 28 29 26 26 27 28 29 30 27 27 28 28 29 30 31 31 29 31
18 18 24 24 21 19 15 11 11 15 8 8 9 10 11 12 16 17 17 19 23 23 26 25 29 31 30 29 26 21 20 24 27 27 26 27 28 29 29 27 27 29 32 32
17 16 18 18 17 17 14 11 8 8 8 8 13 17 17 19 16 18 20 23 28 27 25 23 22 22 25 27 22 20 28 32 33 31 28 26 24 23 25 26 28 28 27 25
16 18 14 14 15 13 14 13 10 10 10 14 15 19 21 17 22 26 23 27 25 22 20 21 23 26 31 31 31 35 37 35 32 30 25 24 23 25 26 27 25 23 23 21
Wind_Direction
229 231 231 230 222 214 218 234 236 233 218 238 247 245 249 257 264 274 272 271 272 276 283 283 283 281 279 285 285 291 299 315 304 315 327 341 341 334 336 332 333 332 331 333
229 227 226 224 217 212 229 229 243 241 231 236 242 246 249 257 266 270 273 269 271 272 272 275 276 278 285 289 287 294 299 301 303 306 312 321 323 330 335 338 333 323 324 329
226 224 221 216 213 213 224 231 239 236 236 243 236 240 246 251 264 270 267 272 278 274 266 271 275 276 285 290 293 296 299 299 299 302 309 322 316 321 328 329 323 322 311 319
223 220 217 212 209 213 224 233 234 232 225 233 236 236 247 251 258 270 274 273 274 274 265 267 271 278 281 286 293 296 295 294 299 302 306 312 312 313 317 316 319 315 318 311
220 218 216 213 208 210 225 226 231 234 246 235 236 241 249 254 263 267 270 270 273 269 266 267 271 280 279 279 293 292 296 295 300 299 302 307 308 307 308 309 310 311 312 267
218 216 213 212 211 219 231 237 240 238 244 238 239 244 249 255 263 266 267 264 265 267 267 271 280 284 288 288 293 292 295 297 299 298 306 307 305 309 304 310 314 318 315 315
217 215 213 210 211 219 232 232 235 236 238 240 246 249 249 254 257 261 265 261 260 267 280 287 285 280 282 289 293 302 299 300 302 300 305 300 316 328 327 324 323 322 318 320
214 212 212 210 210 219 233 231 230 238 242 247 250 250 250 255 257 258 259 266 262 272 271 272 275 277 280 285 288 291 297 302 302 299 300 302 307 321 326 322 320 329 320 325
212 209 209 208 208 219 233 235 238 244 242 247 251 248 249 251 253 256 259 264 268 266 265 265 267 270 277 282 290 292 289 294 291 299 300 302 320 336 338 339 318 339 340 331
208 208 207 206 208 215 227 235 239 238 242 251 249 248 248 254 253 257 258 259 261 263 260 263 266 268 276 277 282 286 289 286 282 287 293 300 312 320 325 316 323 335 341 347
211 209 207 206 205 210 223 233 241 238 245 250 251 255 253 254 254 254 260 258 259 259 256 262 267 271 271 275 282 282 281 287 287 288 290 293 314 318 316 327 332 333 336 335
211 207 206 199 198 205 217 229 237 239 244 251 258 261 266 265 259 256 258 260 265 257 259 261 269 269 275 276 275 280 277 278 287 287 293 302 309 309 317 319 320 323 325 324
207 204 197 195 196 202 217 225 227 237 244 252 253 252 266 274 277 272 259 263 267 265 269 267 269 269 274 271 274 277 281 283 283 287 289 289 295 301 306 308 310 314 315 317
208 202 197 189 189 196 209 219 227 230 241 252 249 265 260 274 279 283 281 270 274 272 272 269 270 270 274 275 278 276 280 283 284 286 291 294 294 296 300 302 306 309 310 308
205 202 194 187 186 191 202 212 231 225 241 245 249 259 267 272 275 277 283 278 276 274 270 271 271 277 277 279 279 276 277 279 281 285 295 293 296 300 300 300 301 303 304 304
200 197 193 184 183 183 191 225 235 234 245 257 249 262 264 271 274 273 275 278 278 277 273 274 275 280 280 278 275 279 281 285 287 289 293 292 297 298 301 302 304 305 303 301
192 187 178 179 178 180 201 228 227 212 241 260 262 265 268 271 275 277 277 280 281 281 274 274 275 276 285 280 275 284 284 286 290 291 293 291 294 296 299 300 304 306 305 304
179 177 175 180 187 195 220 227 201 206 239 262 261 267 272 269 266 269 281 277 281 281 280 280 277 280 280 277 277 286 289 284 286 288 286 288 294 297 297 298 299 298 299 300
170 163 163 174 199 210 203 193 191 216 246 251 261 255 261 271 272 277 278 282 278 287 280 282 282 277 273 279 282 281 284 286 286 285 286 288 289 293 292 293 294 295 298 301
149 167 193 204 207 161 178 212 229 243 254 262 264 268 266 274 276 278 283 288 283 283 285 290 283 282 283 285 284 281 279 278 278 280 281 285 287 288 291 292 293 295 297 299
184 200 202 163 175 198 221 226 231 241 249 256 259 259 261 281 278 282 290 291 294 292 295 292 295 292 291 297 293 288 283 279 277 277 280 283 286 288 290 291 294 296 297 297
190 166 173 188 208 224 228 225 232 247 247 256 243 244 260 279 290 293 294 295 300 294 315 306 303 313 311 309 308 302 298 293 288 285 283 283 283 286 289 291 293 296 299 300
155 185 206 213 227 225 222 221 236 244 246 248 241 238 263 279 294 300 299 293 293 319 307 305 314 320 318 305 305 305 306 303 300 296 296 292 290 292 294 296 298 301 301 301
201 212 211 220 226 228 231 231 242 247 246 202 212 246 271 282 277 293 291 296 308 303 304 308 320 326 311 306 308 307 304 303 300 298 299 297 295 298 301 302 301 300 301 302
215 222 222 225 233 238 240 245 245 249 206 200 241 272 287 277 283 284 290 294 296 300 305 317 315 314 317 309 308 307 314 314 313 309 305 303 301 299 300 305 306 302 298 301
232 241 235 233 237 244 250 252 241 235 206 237 276 273 277 277 279 283 284 290 291 301 305 313 324 338 326 317 311 302 306 305 302 300 301 304 308 308 309 309 305 305 310 315
248 246 254 257 260 255 257 254 247 218 210 256 277 270 275 283 280 280 286 288 293 299 302 306 311 311 299 299 294 286 289 292 294 299 304 307 308 307 308 308 317 323 325 325